Home   Weather   Boynton Beach   Past weeks
Flag for USA

Past Weather in Boynton Beach, Florida, USA — Yesterday and Last 2 Weeks

Now
80 °F

Broken clouds.


Feels Like: 86 °F
Forecast: 85 / 78 °F
Wind: 6 mph from Southeast

Location: Palm Beach International Airport

Current Time: Jun 5, 2020 at 8:48:16 am

Latest Report: Jun 5, 2020 at 7:53 am


Visibility: 10 mi

Pressure: 30.03 "Hg

Humidity: 94%

Dew Point: 78 °F

Location of Boynton BeachLocation

Past Weather in Boynton Beach — Graph

°F

Boynton Beach Temperature Yesterday

Maximum temperature yesterday: 81 °F (at 10:53 am)
Minimum temperature yesterday: 72 °F (at 7:00 am)
Average temperature yesterday: 75 °F

High & Low Weather Summary for the Past Weeks

 TemperatureHumidityPressure
High89 °F (May 26, 2:53 pm)100% (Jun 3, 7:53 pm)30.12 "Hg (Jun 3, 7:53 pm)
Low72 °F (Jun 4, 7:00 am)15% (May 31, 1:53 pm)29.83 "Hg (May 26, 4:53 am)
Average80 °F81%30.00 "Hg
* Reported May 21 6:53 am — Jun 5 6:53 am, Boynton Beach. Weather by CustomWeather, © 2020

Note: Actual official high and low records may vary slightly from our data, if they occured in-between our weather recording intervals... More about our weather records

Boynton Beach Weather History for the Previous 24 Hours

Scroll right to see more
 ConditionsComfort  
Time TempWeatherWind HumidityBarometerVisibility
6:53 am
Fri, Jun 5
78 °FMore clouds than sun.3 mph96%30.01 "Hg10 mi
5:53 am77 °FPartly cloudy.5 mph96%30.00 "Hg10 mi
4:53 am76 °FPartly cloudy.No wind97%30.00 "Hg10 mi
3:53 am77 °FPassing clouds.No wind94%29.98 "Hg10 mi
2:53 am77 °FPassing clouds.5 mph94%29.99 "Hg10 mi
1:53 am75 °FMostly cloudy.5 mph100%30.00 "Hg10 mi
12:53 am74 °FOvercast.5 mph100%30.01 "Hg10 mi
11:53 pm
Thu, Jun 4
73 °FOvercast.No wind100%30.03 "Hg10 mi
10:53 pm73 °FPartly cloudy.No wind100%30.03 "Hg10 mi
9:53 pm73 °FPartly cloudy.No wind100%30.03 "Hg10 mi
8:53 pm72 °FPartly cloudy.3 mph100%30.02 "Hg10 mi
7:53 pm73 °FBroken clouds.No wind100%30.01 "Hg10 mi
6:53 pm74 °FBroken clouds.No wind97%29.99 "Hg10 mi
5:53 pm73 °FRain. Broken clouds.5 mph100%30.00 "Hg7 mi
5:24 pm73 °FLight rain. Fog.9 mph100%30.01 "Hg4 mi
4:53 pm73 °FHeavy rain. Fog.13 mph100%30.01 "Hg1 mi
4:36 pm73 °FHeavy rain. Fog.20 mph100%30.02 "Hg1 mi
3:53 pm75 °FBroken clouds.17 mph96%30.01 "Hg10 mi
3:35 pm75 °FBroken clouds.13 mph96%30.01 "Hg10 mi
2:53 pm76 °FBroken clouds.13 mph94%30.02 "Hg10 mi
1:53 pm75 °FLight rain. Partly sunny.9 mph96%30.03 "Hg7 mi
12:53 pm72 °FRain. Fog.7 mph100%30.06 "Hg4 mi
12:23 pm73 °FLight rain. Fog.7 mph97%30.05 "Hg4 mi
12:15 pm73 °FHeavy rain. Fog.9 mph94%30.05 "Hg2 mi
11:53 am75 °FLight rain. Fog.21 mph96%30.03 "Hg2 mi
11:41 am76 °FHeavy rain. Broken clouds.18 mph94%30.02 "Hg2 mi
11:19 am78 °FLight rain. Partly sunny.14 mph90%30.02 "Hg4 mi
11:08 am80 °FLight rain. Partly sunny.6 mph81%30.02 "Hg2 mi
10:53 am81 °FPartly sunny.No wind77%30.01 "Hg10 mi
9:53 am78 °FPartly sunny.3 mph84%30.01 "Hg10 mi
8:53 am76 °FPartly sunny.3 mph91%29.99 "Hg10 mi
Weather by CustomWeather, © 2020

See weather overview

Advertising